Starlink 32351

operational
NORAD ID: 61529 Int'l Des: 2024-183 Owner: SPXS Country: US Constellation: starlink
LEOCIRCULAR

Über Starlink 32351

Beschreibung wird geladen...

Live-Position

3D-Globus wird geladen...

Nächste Überflüge

Höhenverlauf

Altitude vs Time

uPlot chart will show altitude changes over time

Zweizeiliger Elementsatz

1 61529U 24183W 25258.64883308 -.00002414 00000-0 -69438-4 0 9990
2 61529 53.1616 232.6130 0000476 71.8131 288.2921 15.30193481 52893
Epoch: 15. Sept. 2025 • Age: 21 hours

Aktueller Status

Höhe 475.9 km
Geschwindigkeit 7.63 km/s
Subsatellitenpunkt 2.35°N, 139.76°W
Startdatum 15. Okt. 2024
Alter 0.9 years
Typ internet

Technische Details

Klassifizierung Payload
Masse 730.00 kg
Trockenmasse 700.00 kg
Gesamtmasse 730.00 kg
Länge 0.30 m
Durchmesser 4.10 m
Spannweite 29.00 m
Form Box + pan
Hersteller SPXS
Bus-Typ Starlink V2M
Phasenstatus In Orbit
Besitzer/Staat SPXS/US

Große Konstellationen

Loading constellations...